TimeEST,TemperatureF,Dew PointF,Humidity,Sea Level PressureIn,VisibilityMPH,Wind Direction,Wind SpeedMPH,Gust SpeedMPH,PrecipitationIn,Events,Conditions,WindDirDegrees,DateUTC
12:53 AM,21.9,-0.0,38,30.34,10.0,ESE,13.8,-,N/A,,Clear,120,2013-01-25 05:53:00
1:53 AM,21.9,1.0,40,30.35,10.0,SE,6.9,-,N/A,,Clear,130,2013-01-25 06:53:00
2:53 AM,21.9,1.0,40,30.31,10.0,ESE,8.1,-,N/A,,Overcast,120,2013-01-25 07:53:00
3:53 AM,21.9,1.0,40,30.27,10.0,ESE,10.4,-,N/A,,Overcast,110,2013-01-25 08:53:00
4:53 AM,21.9,1.9,42,30.22,10.0,ESE,10.4,-,N/A,,Overcast,120,2013-01-25 09:53:00
5:53 AM,21.9,5.0,48,30.17,10.0,ESE,10.4,-,0.00,,Overcast,110,2013-01-25 10:53:00
6:53 AM,21.9,5.0,48,30.17,10.0,East,6.9,-,N/A,,Overcast,90,2013-01-25 11:53:00
7:53 AM,21.9,7.0,53,30.17,9.0,ESE,6.9,-,0.00,Snow,Light Snow,120,2013-01-25 12:53:00
8:11 AM,21.2,8.6,58,30.12,9.0,SE,9.2,-,0.00,Snow,Light Snow,130,2013-01-25 13:11:00
8:40 AM,21.2,10.4,63,30.10,2.5,SE,8.1,-,0.00,Snow,Light Snow,140,2013-01-25 13:40:00
8:48 AM,21.2,12.2,68,30.11,1.8,SSE,6.9,-,0.01,Snow,Light Snow,150,2013-01-25 13:48:00
8:53 AM,19.9,12.0,71,30.15,1.0,SSE,4.6,-,0.01,Snow,Light Snow,160,2013-01-25 13:53:00
8:58 AM,19.4,12.2,74,30.12,0.8,SSE,5.8,-,0.00,Snow,Light Snow,150,2013-01-25 13:58:00
9:10 AM,19.4,12.2,74,30.11,1.0,SSE,6.9,-,0.01,Snow,Light Snow,150,2013-01-25 14:10:00
9:23 AM,19.4,14.0,80,30.10,2.5,SSE,4.6,-,0.01,Snow,Light Snow,150,2013-01-25 14:23:00
9:34 AM,19.4,14.0,80,30.11,4.0,Calm,Calm,-,0.01,,Haze,0,2013-01-25 14:34:00
9:53 AM,19.9,14.0,78,30.15,6.0,Calm,Calm,-,0.01,,Haze,0,2013-01-25 14:53:00
10:00 AM,19.4,14.0,80,30.11,9.0,Calm,Calm,-,N/A,,Overcast,0,2013-01-25 15:00:00
10:53 AM,21.0,14.0,74,30.17,9.0,West,3.5,-,N/A,,Overcast,270,2013-01-25 15:53:00
11:53 AM,23.0,16.0,74,30.15,10.0,West,4.6,-,N/A,,Overcast,280,2013-01-25 16:53:00
12:53 PM,25.0,17.1,72,30.12,10.0,West,5.8,-,N/A,,Overcast,260,2013-01-25 17:53:00
1:53 PM,27.0,17.1,66,30.09,10.0,West,9.2,-,N/A,,Overcast,270,2013-01-25 18:53:00
2:00 PM,26.6,17.6,69,30.06,10.0,WNW,9.2,-,N/A,,Overcast,300,2013-01-25 19:00:00
2:53 PM,28.0,15.1,58,30.09,10.0,NW,5.8,-,N/A,,Overcast,320,2013-01-25 19:53:00
3:53 PM,28.9,15.1,56,30.09,10.0,West,9.2,-,N/A,,Overcast,260,2013-01-25 20:53:00
4:53 PM,28.9,16.0,58,30.09,10.0,West,8.1,-,N/A,,Overcast,260,2013-01-25 21:53:00
5:53 PM,28.9,16.0,58,30.09,10.0,SW,5.8,-,N/A,,Overcast,230,2013-01-25 22:53:00
6:09 PM,26.6,15.8,64,30.06,10.0,SW,6.9,-,N/A,,Scattered Clouds,230,2013-01-25 23:09:00
6:53 PM,26.1,16.0,66,30.11,10.0,SW,4.6,-,N/A,,Clear,220,2013-01-25 23:53:00
7:53 PM,25.0,16.0,69,30.12,10.0,SSW,3.5,-,N/A,,Clear,200,2013-01-26 00:53:00
8:53 PM,25.0,17.1,72,30.13,10.0,SW,6.9,-,N/A,,Clear,230,2013-01-26 01:53:00
9:53 PM,26.1,17.1,69,30.13,10.0,WSW,5.8,-,N/A,,Clear,240,2013-01-26 02:53:00
10:53 PM,25.0,18.0,75,30.13,10.0,WSW,5.8,-,N/A,,Clear,250,2013-01-26 03:53:00
11:53 PM,28.0,18.0,66,30.14,10.0,West,5.8,19.6,N/A,,Clear,260,2013-01-26 04:53:00